Location: Alvis C Story Elementary School
(33.0968°N, 96.6364°W)
Time: 05:16:01
(UTC+00:00)

H-2A R/B (2) - Pass Details

Date: 02 July 2022
Orbit: 426 x 34397 km, 28.9° (Epoch: 11 August)

Event Time Altitude Azimuth Distance (km) Brightness Sun altitude
Rises 10:41:46 0° 218° (SW) 21,014 8.7 -8.0°
Reaches altitude 10° 11:26:21 10° 214° (SW) 27,339 9.3 0.0°
Maximum altitude 19:24:48 72° 189° (S) 2,014 6.4 74.4°
Drops below altitude 10° 19:30:29 10° 105° (ESE) 2,640 4.8 73.4°
Sets 19:31:53 0° 102° (ESE) 3,205 5.1 73.2°
